Погода в Ножовке

Россия / Пермский край     57°05′21″N   54°44′40″E
темп.,
°C
ветер,
м/с
пор.,
м/с
влажн.,
%
обл.,
%
осадки,
мм/ч
давл.,
гПа
погр.,
м
14 апреля, ср
ср1423:00+8ю379363 0.0 1034129
02:00+7ююз359699 0.0 103292
05:00+6ююз339440 0.0 103233
08:00+8ююз2499100 0.0 1032132
11:00+10ююз4591100 0.0 1031343
14:00+15ююз356824 0.0 1030692
17:00+17ююз455719 0.0 10281022
20:00+13ю35835 0.0 102799
15 апреля, чт
чт1523:00+10ю33905 0.0 102738
02:00+9ю33915 0.0 102634
05:00+7ю348669 0.0 102562
08:00+8ю388756 0.0 1024214
11:00+13юз57655 0.0 1023546
14:00+17юз67533 0.0 10211157
17:00+17зюз67480 0.0 10201514
20:00+14юз336352 0.0 101928
16 апреля, пт
пт1623:00+11зсз22746 0.0 102017
02:00+6св8138461 0.0 1022467
05:00+4св81384100 0.0 1023494
08:00+3св71283100 0.5 1025610
11:00+7св7964100 0.5 1026856
14:00+10всв67523 0.0 10261306
17:00+11св56444 0.0 10251511
20:00+8ссв47555 0.0 1025192
17 апреля, сб
сб1723:00+4ссв510605 0.0 1027258
02:00+2ссв38639 0.0 1027144
05:00+1с33670 0.0 102741
08:00+2с36610 0.0 1027220
11:00+7с56525 0.0 1027991
14:00+9ссз674660 0.0 10261648
17:00+10ссз684173 0.0 10251929
20:00+7ссз595418 0.0 1025288
18 апреля, вс
вс1823:00+4сз39744 0.0 1026261
02:00+2сз38795 0.0 1026214
05:00+1зсз33840 0.0 102657
08:00+2ссз612775 0.0 1026774
11:00+5с8105275 0.0 10271636
14:00+5ссв89355 0.0 10291891
17:00+5ссв793199 0.0 10302322
20:00+2св69385 0.0 1032647